Location: Lachepaillet
(43.4918°N, 1.4874°W)
Time: 23:25:15
(UTC+00:00)

Okean 1-7 Rocket - Pass Details

Date: 15 May 2026
Orbit: 611 x 641 km, 82.5° (Epoch: 11 June)

Event Time Altitude Azimuth Distance (km) Brightness Sun altitude
Rises 21:42:34 0° 352° (N) 2,928 8.1 -19.7°
Reaches altitude 10° 21:44:48 10° 354° (N) 2,021 7.1 -20.0°
Maximum altitude 21:49:18 81° 81° (E) 648 3.5 -20.4°
Enters shadow 21:50:21 52° 160° (SSE) 790 3.7 -20.5°
